Temperature
12 12 12 12 12 12 12 12 12 12 12 12 12 12 12 12 11 11 11 11 11 11 11 10 10 10 10 9 9 8 8 7 7 6 6 6 6 6 5 5 5 5 5
11 11 12 12 12 12 12 12 12 12 12 12 11 11 11 11 11 11 11 11 11 10 10 10 10 9 9 9 8 8 7 7 6 5 5 5 5 5 5 4 4 4 4
11 11 11 11 11 11 11 11 11 11 11 11 11 11 11 11 10 10 10 10 10 10 9 9 9 9 8 8 8 7 7 6 6 5 5 5 4 4 4 4 4 4 4
10 10 10 10 10 10 10 11 11 11 11 10 10 10 10 10 10 10 10 9 9 9 9 9 8 8 8 7 7 7 6 6 5 5 4 4 4 4 4 3 3 3 3
9 10 10 10 10 10 10 10 10 10 10 10 10 10 9 9 9 9 9 9 9 9 8 8 8 7 7 6 6 6 5 5 4 4 4 4 4 3 3 3 3 3 3
8 9 9 9 9 9 9 9 9 9 9 9 9 9 9 9 9 8 8 8 8 8 7 7 7 6 6 6 5 5 4 4 4 3 3 3 3 3 3 3 2 2 2
8 8 8 8 8 8 8 8 8 8 8 8 8 8 8 8 8 8 7 7 7 7 6 6 6 5 5 5 4 4 3 3 3 3 3 3 3 2 2 2 2 2 1
7 7 7 7 7 7 7 7 7 7 7 7 7 7 7 7 7 7 6 6 6 6 6 5 5 5 4 4 3 3 3 3 3 2 2 2 2 2 2 2 2 1 1
6 6 7 7 7 7 7 7 7 7 7 7 6 6 6 6 6 6 6 6 5 5 5 4 4 4 3 3 3 2 2 2 2 2 2 2 2 1 1 1 1 1 0
6 6 6 6 6 6 6 6 6 6 6 6 6 5 5 5 5 5 5 5 5 4 4 4 3 3 3 2 2 2 1 1 1 1 1 1 1 1 1 0 0 0 -0
5 5 5 5 5 5 5 5 5 5 5 5 4 4 5 5 5 4 4 4 4 4 3 3 3 2 2 1 1 1 1 0 0 0 0 0 0 0 -0 -0 -0 -0 -1
4 4 4 5 4 4 4 4 4 4 4 4 4 4 4 4 4 4 4 4 3 3 3 2 2 2 1 1 0 0 0 -0 -0 -1 -1 -1 -1 -1 -1 -1 -1 -1 -1
4 4 4 4 4 4 4 4 3 3 3 3 4 4 3 3 3 3 3 3 2 2 2 2 1 1 0 -0 -0 -0 -1 -1 -1 -1 -1 -1 -1 -1 -2 -1 -1 -1 -1
3 3 3 3 3 3 3 3 3 3 3 3 3 3 3 3 3 3 3 2 2 1 1 1 0 -0 -0 -1 -1 -1 -1 -1 -1 -2 -2 -2 -2 -2 -2 -2 -2 -2 -2
2 2 2 2 2 3 2 2 2 3 3 3 3 3 3 2 2 2 2 2 1 1 1 0 -0 -0 -1 -1 -1 -1 -1 -1 -2 -2 -2 -2 -2 -3 -3 -3 -3 -3 -3
2 2 2 2 2 2 2 2 2 2 2 2 2 2 2 2 2 1 1 1 1 0 0 -0 -0 -1 -1 -1 -1 -1 -2 -2 -2 -2 -2 -3 -3 -3 -3 -3 -3 -3 -3
1 1 1 1 1 1 1 1 1 1 1 1 1 1 1 1 1 1 0 0 -0 -0 -1 -1 -1 -1 -1 -1 -2 -2 -2 -2 -2 -2 -3 -3 -3 -3 -3 -3 -3 -3 -3
0 0 0 0 0 0 1 1 1 1 1 1 1 1 1 1 0 0 -0 -0 -1 -1 -1 -1 -1 -1 -1 -2 -2 -2 -2 -2 -3 -3 -3 -3 -3 -3 -3 -3 -3 -3 -3
-1 -1 -0 -0 -0 -0 -0 -0 -0 -0 -0 0 -0 -0 -0 -0 -0 -1 -1 -1 -1 -1 -1 -1 -1 -2 -2 -2 -2 -2 -2 -3 -3 -3 -3 -3 -3 -3 -4 -4 -4 -4 -4
-2 -1 -1 -1 -1 -1 -1 -1 -1 -1 -1 -1 -1 -1 -1 -1 -1 -1 -1 -1 -1 -1 -1 -2 -2 -2 -2 -2 -2 -3 -3 -3 -3 -3 -3 -3 -3 -4 -4 -4 -4 -4 -4
-2 -2 -2 -2 -2 -2 -2 -2 -2 -2 -2 -2 -2 -2 -2 -2 -2 -2 -2 -2 -2 -2 -2 -2 -2 -2 -2 -3 -3 -3 -3 -3 -3 -3 -3 -4 -4 -4 -4 -4 -4 -4 -4
-3 -3 -3 -3 -3 -3 -3 -3 -3 -3 -3 -3 -3 -2 -3 -3 -3 -3 -3 -3 -3 -3 -3 -3 -3 -3 -3 -3 -3 -3 -3 -4 -4 -4 -4 -4 -4 -4 -4 -4 -5 -5 -5
-4 -4 -4 -4 -4 -3 -3 -3 -3 -3 -3 -3 -3 -3 -3 -3 -3 -3 -3 -3 -3 -3 -3 -4 -3 -4 -4 -4 -4 -4 -4 -4 -4 -4 -4 -5 -5 -5 -5 -5 -5 -5 -5
-4 -4 -4 -4 -4 -4 -4 -4 -4 -4 -4 -4 -4 -4 -4 -4 -4 -4 -4 -4 -4 -4 -4 -4 -4 -4 -4 -4 -4 -4 -4 -5 -5 -5 -5 -5 -5 -5 -5 -5 -5 -5 -6
-5 -5 -5 -5 -5 -5 -5 -5 -5 -5 -5 -5 -5 -5 -5 -5 -5 -5 -5 -5 -5 -5 -5 -5 -5 -5 -5 -5 -5 -5 -5 -5 -5 -5 -5 -5 -6 -6 -6 -6 -6 -6 -6
-5 -5 -5 -5 -5 -5 -5 -5 -5 -5 -5 -5 -5 -5 -5 -5 -5 -5 -5 -5 -5 -5 -5 -5 -5 -5 -5 -5 -5 -5 -5 -5 -6 -6 -6 -6 -6 -6 -6 -6 -7 -7 -7
Wind_Speed
4 4 6 7 7 8 8 8 8 8 9 10 11 11 10 10 9 8 8 8 8 7 6 6 6 5 4 4 3 4 4 5 5 2 1 1 2 2 2 1 2 2 3
2 3 4 5 6 7 7 7 8 9 10 10 11 10 9 9 8 9 8 8 8 8 7 6 5 4 4 3 3 4 4 4 4 4 2 2 2 2 2 2 1 2 2
1 1 3 4 5 6 6 7 8 9 9 9 10 10 10 9 9 8 8 8 8 7 7 7 6 5 5 3 3 3 3 3 3 3 2 1 1 2 2 1 1 1 2
1 0 2 3 4 5 5 6 7 8 9 9 9 10 10 9 9 8 8 8 7 6 5 5 5 5 4 4 3 3 3 3 3 3 2 2 2 2 2 2 2 2 1
1 0 1 1 2 4 4 5 6 7 8 9 9 9 9 8 8 9 9 8 8 7 6 5 4 4 3 3 3 3 3 3 3 3 3 2 3 3 4 3 3 2 1
1 1 1 2 2 3 4 6 6 7 7 8 9 9 9 7 10 11 9 8 8 8 6 5 4 4 4 4 3 2 1 3 4 3 3 4 4 4 3 3 3 3 3
1 1 0 2 3 3 4 5 6 7 7 7 8 8 8 9 12 12 10 8 7 7 6 6 4 4 5 4 4 4 2 1 1 3 4 4 3 4 4 5 4 3 2
1 0 1 2 3 4 4 5 5 6 7 7 7 8 8 9 11 12 11 7 6 6 6 6 6 6 5 5 4 3 3 2 1 1 2 2 2 2 4 4 3 3 2
2 1 1 2 4 5 5 5 5 6 6 6 7 8 8 8 11 11 10 6 6 6 5 5 6 6 7 7 5 4 3 2 3 3 3 2 1 2 4 4 4 3 2
3 2 1 2 4 5 5 5 4 5 5 5 6 6 7 8 11 11 10 6 6 5 5 5 6 6 8 8 6 5 4 3 3 2 3 3 3 3 3 2 3 3 2
3 2 1 2 3 4 4 5 5 5 5 5 5 5 6 7 10 11 11 6 6 6 5 5 5 9 9 8 6 4 4 3 3 3 2 2 2 2 2 1 1 1 2
3 1 1 2 2 3 5 5 6 6 6 6 5 5 4 5 7 9 11 9 8 6 6 5 5 9 9 8 6 5 6 5 3 3 3 2 2 2 1 2 2 2 2
2 1 1 2 2 4 5 6 6 6 5 5 5 5 5 4 6 9 10 11 11 6 5 7 7 9 8 6 7 8 7 5 4 4 4 3 2 2 3 2 2 3 4
2 1 1 2 2 3 3 4 5 5 5 5 5 5 5 4 5 6 7 7 9 7 5 7 9 8 6 6 6 6 5 5 5 5 4 3 3 4 3 3 2 2 2
1 1 1 2 2 3 3 3 4 4 5 5 5 5 6 6 7 10 8 7 7 7 7 5 5 6 6 6 5 6 5 5 6 5 5 4 5 5 4 4 3 3 3
1 1 1 1 2 2 2 1 1 2 3 4 4 5 5 5 6 10 11 10 11 12 8 6 7 7 7 7 7 7 7 7 6 6 6 6 6 6 5 5 4 5 5
2 2 1 1 2 2 2 2 2 1 3 4 5 6 6 6 7 9 10 11 12 13 8 7 7 7 7 7 7 7 7 6 6 6 6 6 6 6 6 6 6 6 6
2 2 2 2 2 2 2 2 2 2 2 2 4 6 7 7 7 8 9 8 8 9 6 6 7 7 7 7 7 7 6 6 6 7 7 7 7 7 7 7 7 8 7
3 2 2 2 1 2 2 2 2 3 3 2 2 3 5 6 7 8 8 6 6 7 7 6 6 6 6 6 6 6 7 7 7 7 7 8 7 8 8 8 8 10 9
3 3 3 2 2 2 2 2 2 3 3 3 3 2 2 3 4 4 5 5 5 5 6 6 6 6 6 6 6 6 6 7 7 7 7 7 8 8 9 9 8 8 8
3 3 3 2 2 2 2 2 3 3 3 3 3 3 4 3 4 4 4 4 5 5 5 5 5 5 6 6 6 7 7 7 7 7 7 7 7 8 8 8 8 9 8
3 3 3 3 2 2 2 2 2 3 3 3 2 2 4 3 3 3 3 3 4 4 4 4 4 5 5 5 6 7 7 7 7 7 7 8 7 8 8 8 8 8 8
3 3 3 3 3 3 3 2 2 2 2 3 2 2 2 3 3 3 3 3 3 3 3 4 4 4 5 6 7 6 6 7 7 7 7 7 8 8 8 9 10 9 9
3 3 3 3 3 3 3 2 2 2 3 2 2 2 2 2 3 3 3 2 2 3 3 3 4 5 5 6 7 8 9 9 9 8 9 8 8 8 8 9 9 10 10
3 3 3 3 3 3 3 3 2 2 2 2 2 3 2 3 3 3 3 3 3 4 4 4 4 5 6 7 7 8 10 12 11 9 9 7 8 9 9 9 9 9 10
4 3 3 3 3 3 3 3 3 3 3 3 3 3 3 3 3 3 3 3 3 3 4 4 5 6 7 8 9 10 11 12 12 12 10 7 8 8 9 8 10 10 10
Wind_Direction
220 217 212 203 200 201 197 196 188 181 178 178 176 176 175 172 171 174 175 174 177 176 178 185 188 183 184 189 195 211 222 230 243 244 218 199 194 189 164 145 134 127 120
241 216 198 188 187 189 190 191 182 178 176 174 170 167 166 167 168 173 175 177 176 176 176 178 183 178 189 192 197 207 218 225 239 244 226 202 211 191 168 147 111 100 107
302 205 190 181 179 185 184 181 178 171 167 167 168 168 167 166 168 174 175 173 172 173 175 179 178 181 188 188 200 210 215 222 234 238 223 195 183 169 158 139 134 114 98
324 184 174 179 177 174 171 167 168 166 165 166 168 166 163 161 163 165 164 164 163 161 165 170 172 179 183 182 197 210 214 219 221 224 221 207 190 174 181 186 196 190 166
349 45 145 148 148 146 152 158 160 163 161 159 158 154 154 157 164 164 162 161 160 156 156 158 157 153 159 179 194 202 205 217 217 218 219 205 199 192 204 192 196 178 196
338 15 92 143 149 155 158 155 151 150 149 150 154 154 154 156 155 158 158 158 157 158 157 153 148 147 146 149 148 155 199 219 218 218 223 225 224 216 191 185 177 183 209
337 1 124 167 161 162 160 158 154 152 149 151 153 153 153 152 153 155 157 154 157 160 161 162 157 155 158 152 139 131 116 65 278 245 238 238 233 213 192 194 196 203 202
341 310 193 178 166 159 161 158 155 153 154 153 154 153 150 153 155 155 151 151 153 157 165 170 168 167 169 163 156 145 130 104 58 247 254 263 261 228 204 199 183 152 112
329 298 234 191 178 169 169 164 158 153 151 152 154 155 156 157 160 159 155 152 155 159 164 173 176 175 165 168 166 163 161 142 89 74 60 60 90 156 163 153 158 172 185
316 304 267 205 191 182 174 163 156 151 150 149 153 161 164 164 165 168 167 161 162 164 168 176 187 186 175 182 185 181 185 174 156 135 117 105 108 121 146 186 184 186 179
314 299 244 204 192 180 166 159 152 149 150 154 154 161 169 170 172 179 179 174 173 172 176 183 186 187 189 193 198 198 188 172 175 173 164 150 139 122 111 93 124 181 187
308 279 220 188 170 168 162 158 159 160 161 164 165 168 176 178 184 187 191 190 183 180 184 184 183 186 193 194 199 186 177 179 186 189 198 198 187 165 124 95 80 71 68
302 276 216 177 171 172 172 169 167 171 174 177 178 184 186 186 190 195 199 198 196 191 184 179 180 187 192 197 196 190 188 194 197 203 210 207 193 165 150 133 116 99 86
296 275 207 185 178 175 178 180 181 186 188 187 190 194 193 194 195 192 195 198 198 194 183 179 184 190 194 194 192 198 204 207 210 218 212 194 175 175 188 184 179 174 177
305 283 220 199 189 184 190 199 203 207 204 198 201 198 196 206 209 198 189 190 188 182 167 168 179 185 192 196 200 204 205 206 214 216 208 199 195 195 196 190 191 195 208
307 291 250 210 196 192 192 207 219 227 227 231 225 212 217 219 200 201 204 203 195 182 173 185 193 199 204 205 206 208 209 212 212 210 210 209 206 203 199 194 199 209 217
302 288 269 236 215 210 206 204 217 231 223 227 225 223 222 209 205 203 204 204 200 191 196 198 201 205 208 209 211 212 214 212 205 207 211 211 210 208 206 206 206 212 221
317 305 284 262 243 230 225 221 216 217 225 239 229 226 225 220 214 209 206 199 203 202 207 208 209 209 208 210 212 214 215 209 205 210 213 213 211 211 212 215 214 216 220
319 310 305 292 271 248 238 234 229 225 230 239 243 232 223 217 212 210 203 207 208 210 211 213 213 212 211 211 212 213 213 212 210 209 213 213 212 213 218 219 220 220 221
312 313 306 291 278 258 240 232 230 228 228 229 230 231 208 200 207 207 207 211 217 220 216 215 215 214 212 212 212 210 212 214 212 215 217 216 214 215 220 221 221 221 222
311 308 306 295 279 265 252 243 238 234 233 237 242 238 220 219 221 217 215 216 219 222 221 220 221 218 216 214 212 214 216 218 216 216 217 217 215 217 220 221 222 224 226
310 305 302 296 290 277 269 258 246 241 239 243 252 247 234 228 228 226 221 222 225 228 227 224 226 224 219 216 214 214 218 222 221 218 217 217 217 218 218 220 221 221 223
309 301 295 289 285 278 271 262 256 251 251 249 246 240 235 232 234 233 232 234 234 235 234 232 234 233 227 223 221 219 221 223 221 217 218 220 219 219 219 221 222 223 224
305 299 292 289 287 283 278 272 268 264 262 257 250 246 246 246 244 244 247 251 251 250 247 243 243 244 239 235 232 229 231 233 229 225 221 224 224 223 221 223 224 225 227
301 299 295 290 288 286 284 281 274 270 267 262 258 257 256 253 252 254 257 255 254 253 252 250 250 251 251 249 245 242 241 239 233 228 224 224 228 227 228 228 227 227 225
295 295 295 293 285 283 283 282 279 274 270 269 266 264 263 260 259 259 259 257 259 260 258 256 255 260 263 259 255 253 252 249 242 235 231 227 227 229 228 230 230 229 228
Height
1465 1466 1468 1470 1473 1475 1477 1480 1483 1486 1489 1492 1495 1498 1500 1503 1506 1508 1510 1512 1514 1516 1517 1519 1519 1520 1520 1521 1521 1522 1523 1523 1522 1522 1521 1521 1521 1521 1520 1520 1520 1520 1520
1462 1463 1464 1466 1469 1471 1473 1476 1478 1481 1484 1486 1490 1492 1495 1498 1501 1503 1506 1508 1510 1511 1513 1514 1515 1515 1516 1516 1517 1517 1518 1518 1518 1517 1517 1517 1517 1517 1517 1517 1517 1517 1516
1459 1460 1461 1463 1465 1467 1469 1472 1474 1477 1479 1482 1485 1487 1490 1494 1496 1499 1501 1503 1505 1507 1508 1509 1510 1511 1511 1512 1512 1513 1513 1513 1513 1513 1513 1513 1512 1513 1513 1513 1513 1513 1513
1458 1458 1459 1460 1462 1464 1466 1468 1470 1472 1475 1478 1480 1483 1486 1489 1492 1495 1497 1499 1501 1502 1504 1504 1505 1506 1507 1507 1508 1508 1508 1508 1508 1508 1508 1508 1508 1508 1509 1509 1509 1510 1510
1455 1455 1456 1457 1459 1461 1463 1465 1467 1469 1471 1474 1476 1479 1482 1485 1488 1490 1493 1494 1496 1498 1499 1500 1500 1501 1502 1503 1503 1503 1503 1504 1504 1504 1504 1504 1504 1504 1505 1505 1506 1506 1506
1453 1453 1453 1455 1456 1458 1460 1462 1464 1466 1468 1470 1473 1475 1478 1481 1483 1486 1488 1490 1491 1493 1494 1495 1496 1497 1497 1498 1499 1499 1499 1500 1499 1500 1500 1500 1500 1500 1501 1501 1502 1502 1503
1451 1451 1451 1452 1454 1455 1457 1459 1461 1462 1464 1467 1469 1472 1474 1477 1479 1481 1483 1485 1487 1488 1490 1491 1492 1493 1493 1494 1494 1495 1495 1496 1496 1497 1496 1496 1496 1496 1497 1497 1498 1498 1499
1449 1449 1449 1450 1451 1453 1454 1456 1457 1459 1461 1463 1466 1468 1470 1473 1475 1478 1480 1481 1483 1484 1486 1487 1488 1488 1489 1490 1491 1491 1491 1492 1492 1492 1493 1492 1493 1493 1493 1493 1494 1495 1495
1447 1447 1447 1448 1449 1450 1451 1453 1455 1456 1458 1461 1463 1465 1467 1469 1471 1474 1476 1478 1479 1481 1482 1483 1484 1484 1485 1486 1487 1487 1488 1488 1488 1488 1488 1489 1489 1489 1489 1490 1490 1491 1491
1445 1445 1445 1445 1446 1448 1449 1451 1452 1454 1456 1458 1460 1462 1464 1466 1468 1470 1472 1474 1476 1477 1478 1479 1480 1481 1482 1482 1483 1484 1484 1484 1484 1484 1485 1485 1485 1485 1486 1486 1487 1488 1488
1444 1443 1443 1444 1445 1446 1447 1449 1450 1451 1453 1455 1457 1459 1461 1463 1464 1467 1469 1470 1472 1473 1474 1475 1476 1477 1478 1479 1479 1480 1480 1481 1481 1481 1481 1482 1482 1482 1482 1483 1484 1485 1486
1442 1442 1441 1442 1443 1444 1445 1446 1448 1449 1451 1453 1454 1456 1457 1459 1461 1463 1465 1467 1468 1469 1471 1471 1472 1473 1474 1475 1476 1476 1477 1477 1478 1478 1478 1479 1479 1479 1479 1480 1480 1481 1482
1440 1440 1440 1440 1441 1442 1443 1444 1445 1447 1448 1449 1451 1453 1454 1455 1457 1459 1461 1463 1464 1465 1467 1468 1469 1470 1470 1471 1472 1473 1474 1474 1474 1475 1475 1475 1475 1476 1476 1477 1477 1478 1479
1438 1438 1438 1438 1439 1440 1441 1442 1443 1444 1445 1446 1448 1449 1451 1452 1454 1455 1457 1458 1460 1461 1463 1464 1465 1466 1467 1468 1469 1469 1470 1471 1471 1471 1471 1472 1472 1472 1473 1474 1474 1475 1476
1436 1436 1435 1436 1436 1437 1438 1439 1440 1441 1443 1444 1445 1446 1447 1449 1450 1452 1453 1454 1455 1457 1458 1459 1461 1462 1463 1464 1465 1466 1466 1467 1467 1468 1468 1468 1469 1469 1470 1471 1471 1472 1472
1434 1433 1433 1433 1434 1434 1435 1436 1437 1438 1439 1440 1441 1442 1443 1445 1447 1448 1449 1450 1452 1453 1454 1455 1456 1457 1458 1459 1460 1461 1462 1463 1463 1464 1464 1465 1465 1466 1466 1467 1467 1468 1469
1432 1432 1431 1431 1431 1432 1432 1433 1433 1435 1436 1436 1437 1438 1440 1441 1442 1443 1445 1446 1447 1449 1449 1450 1451 1453 1454 1455 1456 1457 1458 1458 1459 1459 1460 1461 1461 1462 1462 1463 1463 1464 1465
1430 1429 1429 1429 1429 1429 1429 1430 1430 1431 1431 1432 1433 1434 1435 1436 1437 1439 1440 1442 1442 1444 1444 1445 1447 1448 1449 1450 1451 1452 1453 1453 1454 1455 1455 1456 1457 1457 1458 1458 1459 1460 1460
1428 1427 1426 1426 1426 1426 1426 1426 1427 1428 1428 1429 1429 1430 1431 1432 1433 1434 1435 1436 1437 1439 1440 1441 1442 1443 1444 1445 1446 1447 1448 1448 1449 1450 1450 1451 1452 1452 1453 1453 1454 1455 1455
1425 1424 1424 1423 1423 1423 1423 1423 1424 1424 1424 1425 1425 1426 1427 1428 1428 1429 1430 1431 1432 1434 1435 1436 1437 1438 1439 1439 1440 1441 1442 1443 1443 1444 1445 1446 1446 1447 1447 1448 1449 1449 1450
1423 1422 1421 1421 1420 1420 1420 1420 1420 1420 1421 1421 1421 1422 1422 1423 1424 1425 1425 1426 1427 1428 1429 1430 1431 1432 1433 1433 1434 1435 1436 1437 1438 1438 1439 1440 1440 1441 1441 1442 1443 1443 1444
1420 1419 1418 1417 1417 1417 1417 1417 1417 1416 1417 1417 1417 1418 1418 1419 1419 1420 1421 1421 1422 1423 1424 1425 1425 1426 1427 1428 1428 1429 1430 1431 1431 1432 1433 1434 1434 1435 1435 1436 1436 1437 1438
1417 1416 1415 1415 1414 1414 1413 1413 1413 1413 1413 1413 1413 1413 1414 1414 1415 1415 1416 1416 1417 1418 1418 1419 1419 1420 1421 1421 1422 1423 1424 1424 1426 1426 1427 1427 1428 1428 1429 1429 1430 1431 1431
1414 1413 1412 1411 1411 1410 1409 1409 1409 1409 1408 1408 1409 1409 1409 1409 1410 1410 1411 1411 1412 1412 1412 1413 1413 1414 1414 1415 1416 1416 1417 1418 1419 1419 1420 1420 1421 1421 1422 1423 1423 1424 1425
1411 1410 1409 1408 1407 1407 1406 1405 1405 1405 1404 1404 1404 1404 1404 1405 1405 1405 1406 1406 1406 1406 1407 1407 1407 1407 1408 1408 1409 1410 1410 1411 1412 1412 1413 1413 1414 1414 1415 1415 1416 1417 1417
1408 1407 1406 1405 1404 1403 1402 1402 1401 1401 1400 1400 1400 1400 1400 1400 1400 1400 1401 1401 1401 1401 1401 1401 1401 1402 1402 1402 1403 1403 1404 1404 1405 1405 1406 1406 1406 1407 1407 1408 1409 1409 1410